Weather History for Altus, OK

Change the Weather History Date:

Saturday, May 18, 2013

  Actual Average (KLTS) Record (KLTS)
Temperature  
Mean Temperature 85 °F -  
Max Temperature 103 °F 83 °F 99 °F (2013)
Min Temperature 68 °F 59 °F 51 °F (2007)
Cooling Degree Days 20    
Growing Degree Days 35 (Base 50)    
Moisture  
Dew Point 64 °F    
Average Humidity 64    
Maximum Humidity 92    
Minimum Humidity 18    
Precipitation  
Precipitation 0.07 in - - ()
Sea Level Pressure  
Sea Level Pressure 29.75 in    
Wind  
Wind Speed 14 mph (SE)    
Max Wind Speed 36 mph    
Max Gust Speed 46 mph    
Visibility 8 miles    
Events Rain , Thunderstorm    
Averages and records for this station are not official NWS values.
T = Trace of Precipitation, MM = Missing Value Source: NWS Daily Summary

Daily Weather History Graph

Daily Weather History Graph

Search for Another Location

Airport:

Trip Planner

Search our weather history database for the weather conditions in past years. The results will help you decide how hot, cold, wet, or windy it might be!

Date:

Astronomy

May. 18, 2013 Rise Set
Actual Time 6:32 AM CDT 8:35 PM CDT
Civil Twilight 6:03 AM CDT 9:04 PM CDT
Nautical Twilight 5:29 AM CDT 9:38 PM CDT
Astronomical Twilight 4:52 AM CDT 10:15 PM CDT
Moon 1:57 PM CDT (5/18) 2:08 AM CDT (5/18)
Length of Visible Light 15h 00m
Length of Day
14h 03m
First Quarter, 55% of the Moon is Illuminated
May 18
First Quarter
May 24
Full
May 31
Last Quarter
Jun 8
New
Jun 16
First Quarter

Hourly Weather History & Observations

Time (CDT) Temp. Heat Index Dew Point Humidity Pressure Visibility Wind Dir Wind Speed Gust Speed Precip Events Conditions
12:15 AM 74.7 °F - 68.9 °F 82% 29.81 in 5.0 mi ESE 15.0 mph - N/A   Haze
12:35 AM 74.3 °F - 68.9 °F 83% 29.81 in 5.0 mi ESE 15.0 mph - N/A   Haze
12:55 AM 73.9 °F - 69.1 °F 85% 29.81 in 5.0 mi ESE 12.7 mph - N/A   Haze
1:35 AM 73.6 °F - 69.3 °F 86% 29.80 in 5.0 mi ESE 15.0 mph - N/A   Haze
1:55 AM 73.4 °F - 69.3 °F 87% 29.80 in 4.0 mi ESE 13.8 mph - N/A   Mostly Cloudy
2:15 AM 73.0 °F - 69.3 °F 88% 29.79 in 4.0 mi ESE 11.5 mph - N/A   Mostly Cloudy
2:35 AM 72.5 °F - 69.1 °F 89% 29.79 in 4.0 mi ESE 11.5 mph - N/A   Mostly Cloudy
3:15 AM 72.5 °F - 69.3 °F 90% 29.79 in 4.0 mi ESE 10.4 mph - N/A   Mostly Cloudy
3:55 AM 72.5 °F - 69.1 °F 89% 29.79 in 4.0 mi ESE 6.9 mph - N/A   Mostly Cloudy
4:15 AM 72.5 °F - 69.3 °F 90% 29.79 in 4.0 mi ESE 10.4 mph - N/A   Mostly Cloudy
4:35 AM 72.0 °F - 69.3 °F 91% 29.79 in 3.0 mi ESE 9.2 mph - N/A   Scattered Clouds
4:55 AM 71.8 °F - 69.3 °F 92% 29.79 in 3.0 mi ESE 9.2 mph - N/A   Mostly Cloudy
5:15 AM 71.8 °F - 69.4 °F 92% 29.79 in 3.0 mi ESE 10.4 mph - N/A   Mostly Cloudy
5:35 AM 72.0 °F - 69.3 °F 91% 29.80 in 3.0 mi East 9.2 mph - N/A   Mostly Cloudy
5:55 AM 72.1 °F - 69.4 °F 91% 29.80 in 3.0 mi ESE 9.2 mph - N/A   Mostly Cloudy
6:15 AM 71.8 °F - 69.3 °F 92% 29.79 in 3.0 mi ESE 10.4 mph - N/A   Mostly Cloudy
6:35 AM 71.8 °F - 69.3 °F 92% 29.80 in 3.0 mi ESE 9.2 mph - N/A Thunderstorm Mostly Cloudy
6:55 AM 71.8 °F - 69.3 °F 92% 29.81 in 3.0 mi ESE 8.1 mph - N/A   Scattered Clouds
7:15 AM 71.8 °F - 69.1 °F 91% 29.82 in 3.0 mi SE 8.1 mph - N/A   Mostly Cloudy
7:35 AM 72.5 °F - 69.8 °F 91% 29.82 in 3.0 mi ESE 9.2 mph - N/A   Scattered Clouds
7:55 AM 72.9 °F - 69.8 °F 90% 29.82 in 3.0 mi ESE 9.2 mph - N/A   Scattered Clouds
8:15 AM 72.9 °F - 69.8 °F 90% 29.83 in 3.0 mi East 9.2 mph - N/A   Scattered Clouds
8:35 AM 72.9 °F - 69.8 °F 90% 29.83 in 3.0 mi East 9.2 mph - N/A   Scattered Clouds
8:55 AM 73.6 °F - 70.0 °F 88% 29.83 in 4.0 mi ESE 9.2 mph - N/A   Scattered Clouds
9:15 AM 75.0 °F - 70.9 °F 87% 29.83 in 4.0 mi ESE 10.4 mph - N/A   Scattered Clouds
9:35 AM 79.3 °F - 70.9 °F 75% 29.82 in 7.0 mi SE 16.1 mph - N/A   Clear
9:55 AM 82.0 °F 86.1 °F 70.3 °F 68% 29.82 in 10.0 mi SE 16.1 mph 19.6 mph N/A   Clear
10:15 AM 81.7 °F 85.1 °F 69.3 °F 66% 29.83 in 10.0 mi SE 13.8 mph - N/A   Scattered Clouds
10:35 AM 84.0 °F 88.1 °F 69.8 °F 62% 29.83 in 10.0 mi SE 11.5 mph - N/A   Clear
10:55 AM 84.9 °F 88.8 °F 69.3 °F 59% 29.82 in 10.0 mi SSE 18.4 mph - N/A   Clear
11:15 AM 87.8 °F 91.1 °F 67.8 °F 51% 29.82 in 10.0 mi SSE 16.1 mph - N/A   Clear
11:35 AM 90.0 °F 92.8 °F 66.7 °F 46% 29.81 in 10.0 mi South 16.1 mph - N/A   Clear
11:55 AM 91.4 °F 93.6 °F 65.1 °F 42% 29.80 in 10.0 mi South 19.6 mph 24.2 mph N/A   Clear
12:15 PM 90.9 °F 92.7 °F 65.1 °F 42% 29.80 in 10.0 mi South 19.6 mph - N/A   Clear
12:35 PM 93.2 °F 95.3 °F 64.9 °F 39% 29.79 in 10.0 mi SSE 17.3 mph 25.3 mph N/A   Clear
12:55 PM 93.4 °F 94.7 °F 63.1 °F 37% 29.79 in 10.0 mi SSW 18.4 mph 28.8 mph N/A   Clear
1:15 PM 93.7 °F 95.8 °F 64.2 °F 38% 29.78 in 10.0 mi South 16.1 mph 24.2 mph N/A   Clear
1:35 PM 96.3 °F 97.6 °F 63.0 °F 33% 29.77 in 10.0 mi South 19.6 mph 26.5 mph N/A   Clear
1:55 PM 97.7 °F 98.5 °F 61.7 °F 30% 29.75 in 10.0 mi South 18.4 mph 23.0 mph N/A   Clear
2:15 PM 98.4 °F 98.7 °F 60.3 °F 28% 29.74 in 10.0 mi South 20.7 mph 26.5 mph N/A   Clear
2:35 PM 99.7 °F 100.1 °F 60.6 °F 27% 29.73 in 10.0 mi SSE 17.3 mph - N/A   Clear
2:55 PM 98.8 °F 99.7 °F 61.2 °F 29% 29.72 in 10.0 mi SSE 19.6 mph 25.3 mph N/A   Clear
3:15 PM 100.9 °F - 50.7 °F 18% 29.71 in 10.0 mi SSW 17.3 mph 24.2 mph N/A   Clear
3:35 PM 102.0 °F 101.1 °F 56.3 °F 22% 29.70 in 10.0 mi SSE 24.2 mph 31.1 mph N/A   Clear
3:55 PM 102.6 °F - 52.0 °F 18% 29.69 in 10.0 mi South 18.4 mph 31.1 mph N/A   Clear
4:15 PM 100.0 °F 99.2 °F 57.2 °F 24% 29.68 in 10.0 mi SSE 19.6 mph 24.2 mph N/A   Clear
4:35 PM 97.2 °F 95.6 °F 55.8 °F 25% 29.66 in 10.0 mi South 19.6 mph 26.5 mph N/A   Scattered Clouds
4:55 PM 93.2 °F 91.9 °F 57.7 °F 30% 29.66 in 5.0 mi SE 24.2 mph 32.2 mph N/A   Haze
5:15 PM 92.1 °F 90.8 °F 57.7 °F 31% 29.67 in 10.0 mi ESE 12.7 mph 24.2 mph N/A Thunderstorm Thunderstorm
5:35 PM 93.2 °F - 52.9 °F 25% 29.67 in 10.0 mi SE 35.7 mph 46.0 mph N/A   Scattered Clouds
5:55 PM 94.3 °F - 48.4 °F 21% 29.64 in 10.0 mi WSW 5.8 mph - N/A Thunderstorm Thunderstorm
6:15 PM 91.4 °F 89.4 °F 54.5 °F 29% 29.66 in 10.0 mi SSW 8.1 mph - N/A Rain , Thunderstorm Light Thunderstorms and Rain
6:35 PM 88.2 °F 86.3 °F 54.7 °F 32% 29.63 in 10.0 mi NNW 3.5 mph - N/A   Clear
6:55 PM 85.8 °F 84.7 °F 56.7 °F 37% 29.61 in 10.0 mi NNE 12.7 mph - N/A Thunderstorm Clear
7:15 PM 86.2 °F 85.0 °F 56.8 °F 37% 29.63 in 10.0 mi East 15.0 mph - N/A Thunderstorm Thunderstorm
7:35 PM 76.3 °F - 61.9 °F 61% 29.67 in 10.0 mi NW 6.9 mph - N/A Rain , Thunderstorm Light Thunderstorms and Rain
7:55 PM 72.5 °F - 63.9 °F 74% 29.66 in 10.0 mi East 16.1 mph 26.5 mph 0.03 in Rain , Thunderstorm Light Thunderstorms and Rain
8:15 PM 72.3 °F - 63.1 °F 73% 29.66 in 10.0 mi ENE 10.4 mph - N/A Rain , Thunderstorm Light Thunderstorms and Rain
8:35 PM 71.8 °F - 64.4 °F 77% 29.64 in 10.0 mi ENE 15.0 mph 20.7 mph N/A Rain , Thunderstorm Light Thunderstorms and Rain
8:55 PM 70.3 °F - 64.4 °F 81% 29.70 in 10.0 mi ENE 18.4 mph 31.1 mph 0.04 in Thunderstorm Thunderstorm
9:15 PM 70.2 °F - 63.9 °F 80% 29.67 in 10.0 mi ENE 16.1 mph 20.7 mph N/A Rain , Thunderstorm Light Thunderstorms and Rain
9:35 PM 68.4 °F - 63.1 °F 83% 29.69 in 10.0 mi ENE 17.3 mph 29.9 mph N/A Thunderstorm Clear
9:55 PM 68.5 °F - 63.0 °F 82% 29.69 in 10.0 mi East 20.7 mph - N/A   Clear
10:15 PM 68.5 °F - 61.0 °F 77% 29.70 in 10.0 mi East 17.3 mph 25.3 mph N/A   Clear
10:35 PM 70.5 °F - 62.6 °F 76% 29.70 in 10.0 mi East 20.7 mph 26.5 mph N/A Thunderstorm Clear
10:55 PM 70.3 °F - 61.7 °F 74% 29.70 in 10.0 mi East 16.1 mph 23.0 mph N/A   Clear
11:15 PM 70.0 °F - 62.1 °F 76% 29.70 in 10.0 mi ESE 18.4 mph - N/A   Clear
11:35 PM 69.3 °F - 62.6 °F 79% 29.70 in 10.0 mi ESE 17.3 mph - N/A   Clear
11:55 PM 70.9 °F - 63.7 °F 78% 29.71 in 10.0 mi SE 17.3 mph - N/A   Clear